Location: Sungai Laei
(2.6000°N, 113.7167°E)
Time: 11:01:12
(UTC+00:00)

Cosmos 2341 Rocket - Pass Details

Date: 22 May 2022
Orbit: 969 x 1004 km, 82.9° (Epoch: 06 July)

Event Time Altitude Azimuth Distance (km) Brightness Sun altitude
Rises 20:10:41 0° 356° (N) 3,714 7.3 -29.4°
Reaches altitude 10° 20:13:12 10° 356° (N) 2,767 6.6 -28.8°
Maximum altitude 20:19:35 86° 266° (W) 1,007 3.9 -27.4°
Enters shadow 20:22:09 39° 181° (S) 1,452 4.7 -26.8°
